Location: George Washington National Forest Helicopter Landing Site
(38.6463°N, 79.0851°W)
Time: 18:28:21
(UTC-04:00)

Tiros 1 despin weight - Pass Details

Date: 24 August 2019
Orbit: 595 x 642 km, 48.2° (Epoch: 15 September)

Event Time Altitude Azimuth Distance (km) Brightness Sun altitude
Rises 23:57:17 0° 236° (SW) 2,818 - -36.6°
Reaches altitude 10° 23:59:33 10° 237° (WSW) 1,922 - -36.8°
Maximum altitude 00:03:58 89° 331° (NNW) 603 - -37.2°
Drops below altitude 10° 00:08:27 10° 57° (ENE) 1,951 - -37.5°
Sets 00:10:46 0° 58° (ENE) 2,864 - -37.7°
